"Pseudo-MPEC" for P22nuDY

Created 2026 Jun 17 18:35:07 UT using Find_Orb

Click here for an explanation of pseudo-MPECs

 
 Astrometry: 
     P22nuDY*0C2026 06 16.48770020 21 00.521-00 46 46.50   ~6GD5 21.89wXNEOCPF52
     P22nuDY 0C2026 06 16.49728720 21 00.835-00 46 37.72   ~6GD5 22.14wXNEOCPF52
     P22nuDY 0C2026 06 16.50689820 21 01.152-00 46 28.82   ~6GD5 22.16wXNEOCPF52
     P22nuDY 0C2026 06 16.59894120 21 04.237-00 45 04.62   ~6GGo 20.91GVNEOCPF51
     P22nuDY 0C2026 06 16.59959220 21 04.253-00 45 04.26   ~6GGo 21.17GVNEOCPF51
     P22nuDY 7B2026 06 17.08966920 21 23.441-00 37 41.13   ~6H6Z 22.1 GXNEOCPZ84
     P22nuDY 7B2026 06 17.09440120 21 23.626-00 37 36.85   ~6H6Z 21.4 GXNEOCPZ84
     P22nuDY 7B2026 06 17.09914620 21 23.799-00 37 32.34   ~6H6Z 21.6 GXNEOCPZ84
     P22nuDY  C2026 06 17.28904820 21 31.370-00 34 39.77   ~6H7Z 21.6 GWNEOCPH01
     P22nuDY KC2026 06 17.29002720 21 31.15 -00 34 40.0    ~6H7Z 21.4 GVNEOCPH21
     P22nuDY KC2026 06 17.29291520 21 31.25 -00 34 37.4    ~6H7Z 21.8 GVNEOCPH21
     P22nuDY KC2026 06 17.29580220 21 31.35 -00 34 34.9    ~6H7Z 22.1 GVNEOCPH21
     P22nuDY  C2026 06 17.29606720 21 31.604-00 34 33.42   ~6H7Z 21.5 GWNEOCPH01
     P22nuDY  C2026 06 17.30361420 21 31.862-00 34 26.47   ~6H7Z 21.8 GWNEOCPH01
     P22nuDY  C2026 06 17.31020220 21 32.079-00 34 20.50   ~6H7Z 21.6 GWNEOCPH01

Station data:
(F51) Pan-STARRS 1, Haleakala  (N20.707234 W156.255910)  US/Hawaii.
   Observers J. Herman, T. Lowe, P. Minguez, A. Schultz, I. Smith. Measurers
   K. Chambers, T. de Boer, J. Fairlamb, H. Gao, M. Huber, C.-C. Lin, E.
   Magnier, Y. Ramanjooloo, R. Wainscoat, R. Weryk. 1.8-m Ritchey-Chrétien +
   CCD.
(F52) Pan-STARRS 2, Haleakala  (N20.707382 W156.255910)  US/Hawaii.
   Observers J. Herman, T. Lowe, P. Minguez, A. Schultz, I. Smith. Measurers
   K. Chambers, T. de Boer, J. Fairlamb, H. Gao, M. Huber, C.-C. Lin, E.
   Magnier, Y. Ramanjooloo, R. Wainscoat, R. Weryk. 1.8-m Ritchey-Chrétien +
   CCD.
(H01) Magdalena Ridge Observatory, Socorro  (N33.984833 W107.189333)  US/New
   Mexico.  Observers W. H. Ryan, E. V. Ryan. Measurer W. H. Ryan. 2.4-m
   f/8.9 reflector + CCD.
(H21) Astronomical Research Observatory, Westfield  (N39.483054 W87.968270)
   US/Illinois.  Observer R. Holmes. Measurers S. Foglia, L. Buzzi, T.
   Linder, R. Holmes. 0.40-m f/5.32 astrograph + CCD.
(Z84) Calar Alto-Schmidt  (N37.224006 W2.548160)  Spain.  Observer F. Ocaña.
   Measurers F. Ocaña, M. Micheli, R. Kresken. 0.8-m f/3 Schmidt + CCD.

Orbital elements:  P22nuDY
   Perihelion 2026 Oct 7.689221 +/- 52.8 TT = 16:32:28.7 (JD 2461321.189221)
Epoch 2026 Jun 17.0 TT = JDT 2461208.5   Earth MOID: 0.0486      AutoNEOCP
M 316.632311809 +/- 17              (J2000 ecliptic)
n   0.384843268 +/- 0.102           Peri.  191.732563 +/- 50
a   1.871889118 +/- 0.332           Node   182.301307 +/- 12
e   0.44099702 +/- 0.0989           Incl.    7.677917 +/- 0.58
P   2.561/935.428d         H 20.64  G  0.15   U 11.2  SR
q 1.046391589 +/- 0.15    Q 2.697386647 +/- 1.26
From 15 observations 2026 June 16-17 (19.7 hr); mean residual 0".36
Residuals in arcseconds: 
260616 F52  .17+  .32-    260617 Z84  .06+  .73+    260617 H21  .22-  .37-    
260616 F52  .01+  .25-    260617 Z84  .46+  .70+    260617 H21  .18-  .50-    
260616 F52  .09-  .09-    260617 Z84  .67+  .89+    260617 H01  .03-  .30-    
260616 F51  .04-  .44+    260617 H01  .06+  .26-    260617 H01  .01-  .23-    
260616 F51  .13-  .21+    260617 H21  .27-  .33-    260617 H01  .10-  .27-    

Ephemerides (geocentric):
Date (UTC) HH   RA             Dec           delta  r     elong  mag " sig PA
---- --------  ------------   ------------  ------ ------ -----  --- --------
2026 06 17 19  20 21 49.630   -00 26 52.99  .64034 1.5385 135.3 21.8 3.79 131
2026 06 17 20  20 21 51.171   -00 26 14.91  .63990 1.5382 135.3 21.8 4.24 132
2026 06 17 21  20 21 52.710   -00 25 36.82  .63947 1.5380 135.3 21.8 4.70 133
2026 06 17 22  20 21 54.247   -00 24 58.72  .63903 1.5377 135.4 21.8 5.19 134
2026 06 17 23  20 21 55.782   -00 24 20.62  .63859 1.5375 135.4 21.8 5.70 135
2026 06 18 00  20 21 57.314   -00 23 42.50  .63816 1.5372 135.4 21.8 6.24 136
2026 06 18 01  20 21 58.844   -00 23 04.39  .63772 1.5369 135.4 21.8 6.79 136
2026 06 18 02  20 22 00.371   -00 22 26.26  .63729 1.5367 135.5 21.8 7.36 137
2026 06 18 03  20 22 01.896   -00 21 48.13  .63685 1.5364 135.5 21.8 7.96 137
2026 06 18 04  20 22 03.419   -00 21 09.99  .63642 1.5362 135.5 21.8 8.58 137
2026 06 18 05  20 22 04.939   -00 20 31.84  .63598 1.5359 135.5 21.8 9.21 138
2026 06 18 06  20 22 06.457   -00 19 53.69  .63555 1.5357 135.6 21.8 9.87 138
2026 06 18 07  20 22 07.973   -00 19 15.53  .63512 1.5354 135.6 21.8 10.5 138
2026 06 18 08  20 22 09.486   -00 18 37.37  .63468 1.5351 135.6 21.8 11.2 139
2026 06 18 09  20 22 10.997   -00 17 59.20  .63425 1.5349 135.6 21.8 12.0 139
2026 06 18 10  20 22 12.506   -00 17 21.02  .63381 1.5346 135.7 21.8 12.7 139
2026 06 18 11  20 22 14.012   -00 16 42.83  .63338 1.5344 135.7 21.8 13.5 139
2026 06 18 12  20 22 15.516   -00 16 04.64  .63295 1.5341 135.7 21.8 14.3 140
2026 06 18 13  20 22 17.017   -00 15 26.44  .63251 1.5339 135.7 21.8 15.1 140
2026 06 18 14  20 22 18.516   -00 14 48.23  .63208 1.5336 135.8 21.8 15.9 140
2026 06 18 15  20 22 20.013   -00 14 10.02  .63165 1.5333 135.8 21.8 16.7 140
2026 06 18 16  20 22 21.508   -00 13 31.80  .63122 1.5331 135.8 21.8 17.6 140
2026 06 18 17  20 22 23.000   -00 12 53.57  .63078 1.5328 135.8 21.8 18.5 140
2026 06 18 18  20 22 24.489   -00 12 15.34  .63035 1.5326 135.9 21.8 19.4 141
2026 06 18 19  20 22 25.977   -00 11 37.10  .62992 1.5323 135.9 21.8 20.3 141
2026 06 18 20  20 22 27.462   -00 10 58.86  .62949 1.5321 135.9 21.8 21.3 141
2026 06 18 21  20 22 28.944   -00 10 20.61  .62906 1.5318 135.9 21.8 22.2 141
2026 06 18 22  20 22 30.425   -00 09 42.35  .62863 1.5315 136.0 21.8 23.2 141
2026 06 18 23  20 22 31.902   -00 09 04.08  .62819 1.5313 136.0 21.8 24.2 141
2026 06 19 00  20 22 33.378   -00 08 25.81  .62776 1.5310 136.0 21.8 25.2 141
2026 06 19 01  20 22 34.851   -00 07 47.53  .62733 1.5308 136.0 21.8 26.3 141
2026 06 19 02  20 22 36.322   -00 07 09.25  .62690 1.5305 136.0 21.8 27.4 142
2026 06 19 03  20 22 37.790   -00 06 30.96  .62647 1.5303 136.1 21.8 28.5 142
2026 06 19 04  20 22 39.257   -00 05 52.66  .62604 1.5300 136.1 21.8 29.6 142
2026 06 19 05  20 22 40.720   -00 05 14.36  .62561 1.5297 136.1 21.8 30.7 142
2026 06 19 06  20 22 42.182   -00 04 36.04  .62518 1.5295 136.1 21.8 31.9 142
2026 06 19 07  20 22 43.641   -00 03 57.73  .62475 1.5292 136.2 21.8 33.0 142
2026 06 19 08  20 22 45.097   -00 03 19.40  .62432 1.5290 136.2 21.8 34.2 142
2026 06 19 09  20 22 46.552   -00 02 41.08  .62389 1.5287 136.2 21.8 35.4 142
2026 06 19 10  20 22 48.003   -00 02 02.74  .62347 1.5285 136.2 21.8 36.7 142
2026 06 19 11  20 22 49.453   -00 01 24.40  .62304 1.5282 136.3 21.8 37.9 142
2026 06 19 12  20 22 50.900   -00 00 46.05  .62261 1.5279 136.3 21.8 39.2 142
2026 06 19 13  20 22 52.345   -00 00 07.69  .62218 1.5277 136.3 21.7 40.5 142
2026 06 19 14  20 22 53.787   +00 00 30.67  .62175 1.5274 136.3 21.7 41.8 142
2026 06 19 15  20 22 55.227   +00 01 09.04  .62132 1.5272 136.4 21.7 43.1 143
2026 06 19 16  20 22 56.665   +00 01 47.41  .62090 1.5269 136.4 21.7 44.5 143
2026 06 19 17  20 22 58.100   +00 02 25.79  .62047 1.5267 136.4 21.7 45.9 143
2026 06 19 18  20 22 59.533   +00 03 04.18  .62004 1.5264 136.4 21.7 47.3 143